Location: Bothwell
(42.3833°S, 147.0000°E)
Time: 21:20:01
(UTC+11:00)

First-Move - Pass Details

Date: 02 October 2022
Orbit: 570 x 653 km, 97.7° (Epoch: 25 November)

Event Time Altitude Azimuth Distance (km) Brightness Sun altitude
Rises 00:48:19 0° 123° (ESE) 3,014 ? -43.1°
Enters shadow 03:01:06 -39° 25° (NNE) 8,976 ? -36.9°
Maximum altitude 03:23:39 25° 113° (ESE) 1,335 ? -34.1°
